sat.trackr.live / text

‹ back to catalog

KUIPER-00259

NORAD 67786 · 2026-030Y

PAYLOAD ACTIVE UNKNOWN

§ Identity

Operator
Country
US
Launch date
2026-02-12
Launch site
FRGUI
Launch vehicle
Mass (kg)
RCS (m²)

External: N2YO · Heavens-Above · Gunter

§ Orbital elements

Epoch: 2026-05-25T05:00:33.983424Z

Period
97.54 min
Inclination
51.8979°
Eccentricity
0.0001518
Mean motion
14.76357190 rev/d
Perigee alt
639.8 km
Apogee alt
641.9 km
Semi-major
7,019.0 km
B*
2.5797e-4
RAAN
219.3635°
Arg perigee
103.7129°
Mean anomaly
256.4001°
Rev number
1,672

§ Raw data

KUIPER-002591 67786U 26030Y   26145.20872666  .00001593  00000+0  25797-3 0  99902 67786  51.8979 219.3635 0001518 103.7129 256.4001 14.76357190 16729

JSON: /api/v1/satellites/67786 · /tle

For live sub-satellite position, see the globe view (requires WebGL).

§ Visibility from observer

Set your observer location to see the next 7 days of passes ≥ 10°. The values pass through the URL so the page stays shareable.

No JS? Fill the form by hand. The geolocation button needs JavaScript.